When you browse on this site, cookies collect data to enhance your experience and personalize the content and advertising you see.
Visit our Privacy Policy to learn more. By continuing to use the site, you agree to this use of cookies and data.
  • în România
  • Lista ţărilor
  • Pe 7 zile
  • Temperatura apei
  • Hartă satelitară
  • Meteo pe hartă
  • Widget-uri
  • user-avatar
    Intrare

    Meteo pe oră la Coro

    Astăzi, 18 Ianuarie, Vineri

    Timp Temperatura Precipitaţii Vânt Presiune Umiditate
    00:00 +26°C° 0 mm 6 m/s 757 mmHg 89%
    01:00 +26°C° 0 mm 6 m/s 757 mmHg 89%
    02:00 +26°C° 0 mm 6 m/s 757 mmHg 89%
    03:00 +26°C° 0 mm 6 m/s 757 mmHg 90%
    04:00 +26°C° 0 mm 6 m/s 756 mmHg 90%
    05:00 +26°C° 0 mm 6 m/s 757 mmHg 89%
    06:00 +26°C° 0 mm 6 m/s 757 mmHg 88%
    07:00 +26°C° 0 mm 5 m/s 757 mmHg 85%
    08:00 +28°C° 0 mm 5 m/s 758 mmHg 80%
    09:00 +29°C° 0 mm 6 m/s 758 mmHg 75%
    10:00 +30°C° 0 mm 6 m/s 758 mmHg 70%
    11:00 +32°C° 0 mm 6 m/s 757 mmHg 67%
    12:00 +32°C° 0 mm 7 m/s 757 mmHg 63%
    13:00 +33°C° 0 mm 7 m/s 756 mmHg 60%
    14:00 +33°C° 0 mm 7 m/s 756 mmHg 61%
    15:00 +32°C° 0 mm 8 m/s 755 mmHg 62%
    16:00 +32°C° 0 mm 8 m/s 755 mmHg 63%
    17:00 +31°C° 0 mm 8 m/s 755 mmHg 70%
    18:00 +28°C° 0 mm 7 m/s 755 mmHg 76%
    19:00 +27°C° 0 mm 7 m/s 756 mmHg 82%
    20:00 +27°C° 0 mm 7 m/s 756 mmHg 84%
    21:00 +27°C° 0 mm 7 m/s 756 mmHg 86%
    22:00 +26°C° 0 mm 7 m/s 757 mmHg 87%
    23:00 +26°C° 0.1 mm 7 m/s 757 mmHg 88%

    Mâine, 19 Ianuarie, Sâmbătă

    Timp Temperatura Precipitaţii Vânt Presiune Umiditate
    00:00 +26°C° 0.1 mm 6 m/s 756 mmHg 89%
    01:00 +26°C° 0.1 mm 6 m/s 756 mmHg 89%
    02:00 +26°C° 0 mm 6 m/s 756 mmHg 89%
    03:00 +26°C° 0 mm 6 m/s 756 mmHg 90%
    04:00 +26°C° 0 mm 6 m/s 756 mmHg 90%
    05:00 +26°C° 0 mm 6 m/s 757 mmHg 89%
    06:00 +26°C° 0 mm 7 m/s 757 mmHg 89%
    07:00 +26°C° 0 mm 7 m/s 757 mmHg 88%
    08:00 +28°C° 0 mm 7 m/s 757 mmHg 80%
    09:00 +29°C° 0 mm 6 m/s 758 mmHg 72%
    10:00 +32°C° 0 mm 6 m/s 758 mmHg 64%
    11:00 +33°C° 0 mm 6 m/s 757 mmHg 59%
    12:00 +34°C° 0 mm 7 m/s 756 mmHg 55%
    13:00 +35°C° 0 mm 7 m/s 756 mmHg 51%
    14:00 +34°C° 0 mm 7 m/s 755 mmHg 53%
    15:00 +34°C° 0 mm 8 m/s 755 mmHg 55%
    16:00 +33°C° 0 mm 8 m/s 754 mmHg 57%
    17:00 +31°C° 0 mm 8 m/s 755 mmHg 64%
    18:00 +28°C° 0 mm 8 m/s 755 mmHg 70%
    19:00 +27°C° 0 mm 7 m/s 755 mmHg 77%
    20:00 +26°C° 0 mm 7 m/s 756 mmHg 81%
    21:00 +26°C° 0 mm 7 m/s 756 mmHg 85%
    22:00 +24°C° 0 mm 7 m/s 757 mmHg 88%
    23:00 +24°C° 0 mm 7 m/s 756 mmHg 88%

    Poimâine, 20 Ianuarie, Duminică

    Timp Temperatura Precipitaţii Vânt Presiune Umiditate
    00:00 +24°C° 0 mm 6 m/s 756 mmHg 88%
    01:00 +24°C° 0 mm 6 m/s 756 mmHg 88%
    02:00 +24°C° 0 mm 6 m/s 756 mmHg 88%
    03:00 +24°C° 0 mm 7 m/s 756 mmHg 89%
    04:00 +24°C° 0 mm 7 m/s 756 mmHg 89%
    05:00 +26°C° 0 mm 7 m/s 756 mmHg 88%
    06:00 +26°C° 0 mm 7 m/s 756 mmHg 87%
    07:00 +26°C° 0 mm 7 m/s 757 mmHg 86%
    08:00 +27°C° 0 mm 7 m/s 757 mmHg 81%
    09:00 +29°C° 0 mm 7 m/s 758 mmHg 75%
    10:00 +30°C° 0 mm 7 m/s 758 mmHg 70%
    11:00 +32°C° 0 mm 7 m/s 757 mmHg 64%
    12:00 +33°C° 0 mm 7 m/s 756 mmHg 59%
    13:00 +35°C° 0 mm 7 m/s 755 mmHg 53%
    14:00 +34°C° 0 mm 7 m/s 755 mmHg 55%
    15:00 +34°C° 0 mm 8 m/s 754 mmHg 57%
    16:00 +33°C° 0 mm 8 m/s 754 mmHg 59%
    17:00 +31°C° 0 mm 8 m/s 755 mmHg 66%
    18:00 +29°C° 0 mm 7 m/s 755 mmHg 73%
    19:00 +27°C° 0 mm 7 m/s 756 mmHg 80%
    20:00 +27°C° 0 mm 7 m/s 756 mmHg 83%
    21:00 +26°C° 0 mm 7 m/s 757 mmHg 86%
    22:00 +26°C° 0 mm 6 m/s 757 mmHg 89%
    23:00 +26°C° 0 mm 6 m/s 757 mmHg 89%

    21 Ianuarie, Luni

    Timp Temperatura Precipitaţii Vânt Presiune Umiditate
    00:00 +26°C° 0 mm 6 m/s 757 mmHg 90%
    01:00 +26°C° 0 mm 6 m/s 757 mmHg 90%
    02:00 +26°C° 0 mm 6 m/s 756 mmHg 90%
    03:00 +26°C° 0 mm 6 m/s 756 mmHg 91%
    04:00 +26°C° 0 mm 6 m/s 756 mmHg 91%
    05:00 +26°C° 0 mm 6 m/s 757 mmHg 91%
    06:00 +26°C° 0 mm 6 m/s 758 mmHg 91%
    07:00 +26°C° 0 mm 6 m/s 758 mmHg 90%
    08:00 +28°C° 0 mm 6 m/s 759 mmHg 82%
    09:00 +30°C° 0 mm 6 m/s 759 mmHg 75%
    10:00 +32°C° 0 mm 6 m/s 759 mmHg 67%
    11:00 +33°C° 0 mm 6 m/s 758 mmHg 65%
    12:00 +33°C° 0 mm 7 m/s 758 mmHg 62%
    13:00 +33°C° 0 mm 7 m/s 757 mmHg 60%
    14:00 +33°C° 0 mm 7 m/s 757 mmHg 61%
    15:00 +33°C° 0 mm 7 m/s 756 mmHg 62%
    16:00 +32°C° 0 mm 7 m/s 756 mmHg 63%
    17:00 +30°C° 0 mm 7 m/s 756 mmHg 70%
    18:00 +29°C° 0 mm 7 m/s 757 mmHg 77%
    19:00 +27°C° 0 mm 7 m/s 757 mmHg 84%
    20:00 +27°C° 0 mm 6 m/s 758 mmHg 86%
    21:00 +26°C° 0 mm 6 m/s 758 mmHg 88%
    22:00 +26°C° 0 mm 6 m/s 758 mmHg 90%
    23:00 +26°C° 0 mm 6 m/s 758 mmHg 91%

    22 Ianuarie, Marţi

    Timp Temperatura Precipitaţii Vânt Presiune Umiditate
    00:00 +26°C° 0 mm 6 m/s 758 mmHg 92%
    01:00 +26°C° 0 mm 6 m/s 757 mmHg 92%
    02:00 +26°C° 0 mm 6 m/s 757 mmHg 92%
    03:00 +26°C° 0 mm 6 m/s 757 mmHg 92%
    04:00 +26°C° 0 mm 6 m/s 757 mmHg 92%
    05:00 +26°C° 0.1 mm 6 m/s 757 mmHg 90%
    06:00 +26°C° 0.1 mm 6 m/s 758 mmHg 89%
    07:00 +26°C° 0.1 mm 6 m/s 758 mmHg 88%
    08:00 +27°C° 0 mm 6 m/s 759 mmHg 81%
    09:00 +29°C° 0 mm 6 m/s 759 mmHg 73%
    10:00 +30°C° 0 mm 6 m/s 759 mmHg 66%
    11:00 +33°C° 0 mm 7 m/s 758 mmHg 58%
    12:00 +34°C° 0 mm 7 m/s 758 mmHg 50%
    13:00 +37°C° 0 mm 8 m/s 757 mmHg 43%
    14:00 +35°C° 0 mm 8 m/s 757 mmHg 46%
    15:00 +34°C° 0 mm 8 m/s 756 mmHg 48%
    16:00 +33°C° 0 mm 9 m/s 756 mmHg 51%
    17:00 +31°C° 0 mm 8 m/s 756 mmHg 61%
    18:00 +28°C° 0 mm 7 m/s 757 mmHg 71%
    19:00 +26°C° 0 mm 7 m/s 757 mmHg 81%
    20:00 +26°C° 0 mm 7 m/s 758 mmHg 83%
    21:00 +26°C° 0 mm 7 m/s 758 mmHg 86%
    22:00 +26°C° 0 mm 7 m/s 758 mmHg 89%
    23:00 +26°C° 0.1 mm 7 m/s 758 mmHg 90%

    23 Ianuarie, Miercuri

    Timp Temperatura Precipitaţii Vânt Presiune Umiditate
    00:00 +24°C° 0.1 mm 6 m/s 758 mmHg 90%
    01:00 +24°C° 0.1 mm 6 m/s 758 mmHg 91%
    02:00 +24°C° 0.1 mm 6 m/s 757 mmHg 91%
    03:00 +24°C° 0.1 mm 6 m/s 757 mmHg 91%
    04:00 +24°C° 0.1 mm 6 m/s 757 mmHg 92%
    05:00 +24°C° 0 mm 7 m/s 757 mmHg 90%
    06:00 +24°C° 0 mm 7 m/s 758 mmHg 89%
    07:00 +26°C° 0 mm 7 m/s 758 mmHg 88%
    08:00 +28°C° 0 mm 7 m/s 758 mmHg 77%
    09:00 +30°C° 0 mm 7 m/s 759 mmHg 67%
    10:00 +32°C° 0 mm 7 m/s 759 mmHg 57%
    11:00 +34°C° 0 mm 8 m/s 758 mmHg 52%
    12:00 +35°C° 0 mm 8 m/s 757 mmHg 46%
    13:00 +37°C° 0 mm 9 m/s 756 mmHg 41%
    14:00 +35°C° 0 mm 9 m/s 756 mmHg 44%
    15:00 +34°C° 0 mm 9 m/s 755 mmHg 47%
    16:00 +33°C° 0 mm 9 m/s 755 mmHg 50%
    17:00 +31°C° 0 mm 9 m/s 755 mmHg 58%
    18:00 +28°C° 0 mm 8 m/s 756 mmHg 67%
    19:00 +27°C° 0 mm 8 m/s 756 mmHg 76%
    20:00 +26°C° 0 mm 8 m/s 757 mmHg 79%
    21:00 +26°C° 0 mm 8 m/s 757 mmHg 83%
    22:00 +24°C° 0 mm 7 m/s 758 mmHg 87%
    23:00 +24°C° 0 mm 7 m/s 757 mmHg 87%
    Arată mai mult